Ft Lauderdale, FL

12:52 PM EDT on March 28, 2017 (GMT -0400)
Fort Lauderdale-Hollywood International

Weather History for KFLL - June, 2012

Change the Weather History Date:

Thursday, June 7, 2012

  Actual Average Record
Temperature  
Mean Temperature 87 °F 83 °F  
Max Temperature 93 °F 88 °F 95 °F (1998)
Min Temperature 80 °F 77 °F 64 °F (1949)
Degree Days  
Heating Degree Days 0 0  
Month to date heating degree days 0 0  
Since 1 June heating degree days 0 0  
Since 1 July heating degree days 65 112  
Cooling Degree Days 22 18  
Month to date cooling degree days 129 123  
Year to date cooling degree days 1634 1541  
Since 1 June cooling degree days 129 123  
Growing Degree Days 36 (Base 50)    
Moisture  
Dew Point 74 °F    
Average Humidity 72    
Maximum Humidity 94    
Minimum Humidity 49    
Precipitation  
Precipitation T in 0.33 in 8.15 in (2013)
Month to date precipitation 2.30 2.26  
Year to date precipitation 18.53 19.75  
Snow  
Snow 0.00 in - - ()
Month to date snowfall 0.0  
Since 1 June snowfall 0.0  
Since 1 July snowfall 0.0  
Snow Depth 0.00 in    
Sea Level Pressure  
Sea Level Pressure 29.95 in    
Wind  
Wind Speed 7 mph (SSW)    
Max Wind Speed 17 mph    
Max Gust Speed 24 mph    
Visibility 10 miles    
Events Rain    
T = Trace of Precipitation, MM = Missing Value Source: NWS Daily Summary

Daily Weather History Graph

Daily Weather History Graph

Search for Another Location

Airport or City:

Trip Planner

Search our weather history database for the weather conditions in past years. The results will help you decide how hot, cold, wet, or windy it might be!

Date:

Astronomy

Jun. 07, 2012 Rise Set
Actual Time 6:27 AM EDT 8:11 PM EDT
Civil Twilight 6:01 AM EDT 8:37 PM EDT
Nautical Twilight 5:30 AM EDT 9:08 PM EDT
Astronomical Twilight 4:58 AM EDT 9:41 PM EDT
Moon 11:16 PM EDT (6/7) 9:46 AM EDT (6/7)
Length of Visible Light 14h 35m
Length of Day
13h 43m
Waning Gibbous, 86% of the Moon is Illuminated
Jun 7
Waning Gibbous
Jun 11
Last Quarter
Jun 19
New
Jun 26
First Quarter
Jul 3
Full

Hourly Weather History & Observations

Time (EDT) Temp. Heat Index Dew Point Humidity Pressure Visibility Wind Dir Wind Speed Gust Speed Precip Events Conditions
12:53 AM 82.0 °F 90.2 °F 77.0 °F 85% 29.98 in 10.0 mi Calm Calm - N/A   Partly Cloudy
1:53 AM 82.0 °F 90.2 °F 77.0 °F 85% 29.96 in 10.0 mi South 3.5 mph - N/A   Partly Cloudy
2:53 AM 82.0 °F 88.6 °F 75.0 °F 79% 29.95 in 10.0 mi Calm Calm - N/A   Clear
3:53 AM 80.1 °F 85.1 °F 75.0 °F 85% 29.93 in 10.0 mi SSE 4.6 mph - N/A   Partly Cloudy
4:53 AM 82.0 °F 91.0 °F 78.1 °F 88% 29.93 in 10.0 mi SSE 6.9 mph - N/A   Partly Cloudy
5:53 AM 82.0 °F 91.0 °F 78.1 °F 88% 29.94 in 10.0 mi South 5.8 mph - N/A   Partly Cloudy
6:53 AM 81.0 °F 88.6 °F 78.1 °F 91% 29.95 in 10.0 mi SSW 4.6 mph - N/A   Clear
7:53 AM 82.0 °F 91.0 °F 78.1 °F 88% 29.96 in 10.0 mi South 5.8 mph - N/A   Partly Cloudy
8:53 AM 84.0 °F 93.7 °F 77.0 °F 79% 29.97 in 10.0 mi South 5.8 mph - N/A   Scattered Clouds
9:53 AM 82.9 °F 91.8 °F 77.0 °F 82% 29.98 in 9.0 mi SSW 8.1 mph - 0.00 in Rain Light Rain
10:53 AM 87.1 °F 96.3 °F 75.0 °F 67% 29.97 in 10.0 mi South 8.1 mph - 0.00 in   Scattered Clouds
11:53 AM 89.1 °F 95.0 °F 71.1 °F 55% 29.97 in 10.0 mi SW 10.4 mph - N/A   Partly Cloudy
12:53 PM 91.0 °F 98.2 °F 72.0 °F 53% 29.96 in 10.0 mi SSW 11.5 mph 16.1 mph N/A   Scattered Clouds
1:53 PM 90.0 °F 96.4 °F 71.1 °F 54% 29.95 in 10.0 mi West 15.0 mph 19.6 mph N/A   Mostly Cloudy
2:53 PM 91.9 °F 100.7 °F 73.0 °F 54% 29.93 in 10.0 mi South 8.1 mph - N/A   Mostly Cloudy
3:53 PM 91.0 °F 96.6 °F 70.0 °F 50% 29.92 in 10.0 mi WSW 5.8 mph 19.6 mph N/A   Scattered Clouds
4:53 PM 90.0 °F 96.4 °F 71.1 °F 54% 29.93 in 10.0 mi WSW 11.5 mph 19.6 mph N/A   Scattered Clouds
5:53 PM 90.0 °F 96.4 °F 71.1 °F 54% 29.93 in 10.0 mi WSW 11.5 mph - N/A   Partly Cloudy
6:53 PM 88.0 °F 93.8 °F 71.1 °F 57% 29.94 in 10.0 mi WSW 10.4 mph - N/A   Partly Cloudy
7:53 PM 87.1 °F 92.8 °F 71.1 °F 59% 29.94 in 10.0 mi WSW 5.8 mph - N/A   Clear
8:53 PM 86.0 °F 92.2 °F 72.0 °F 63% 29.95 in 10.0 mi SW 4.6 mph - N/A   Clear
9:53 PM 86.0 °F 92.2 °F 72.0 °F 63% 29.97 in 10.0 mi WSW 3.5 mph - N/A   Partly Cloudy
10:53 PM 84.0 °F 90.2 °F 73.0 °F 69% 29.98 in 10.0 mi SW 3.5 mph - N/A   Scattered Clouds
11:53 PM 84.9 °F 92.1 °F 73.9 °F 69% 29.98 in 10.0 mi West 3.5 mph - N/A   Mostly Cloudy